User: anonymous   Login
Location: Unspecified
(0.0000°N, 0.0000°E)
Time: 07:58:23
(UTC+00:00)
Language:

OTV 4 - Orbit

View from above orbital plane
View from above orbital plane
View from above satellite
View from above satellite

Ground track
Ground track

The orbit data is extracted from the following two-line orbital elements,

1 40651U 15025A   17014.73227057 0.00000000  00000-0  00000-0 0    08
2 40651  37.9946 315.4607 0024412 202.2799 157.7193 15.77237940    04
Epoch (UTC): 14 January 2017 17:34:28
Eccentricity: 0.0024412
inclination: 37.9946°
perigee height: 322 km
apogee height: 354 km
right ascension of ascending node: 315.4607°
argument of perigee: 202.2799°
revolutions per day: 15.77237940
mean anomaly at epoch: 157.7193°
orbit number at epoch: 0

The dashed part of the orbit path shows where the satellite is in the earth's shadow,  

DLR